Wind_Speed
17 17 16 16 16 16 16 16 16 15 15 15 15 15 14 14 14 15 15 15 15 14 14 15 15 15 15 15 15 16 15 15 15 15 15 15 15 15 15 15 15 15 15
18 18 18 18 18 18 18 17 17 17 17 17 17 17 17 17 17 16 17 17 17 17 17 17 17 17 17 17 17 17 17 17 17 16 17 17 17 17 17 17 17 17 17
20 20 20 20 20 19 19 19 18 18 18 18 18 19 19 19 19 19 19 19 19 20 19 19 19 19 19 18 18 18 19 19 18 18 18 18 18 19 19 19 18 18 19
22 22 22 22 21 21 21 20 20 19 19 19 19 20 20 21 21 21 20 21 21 21 21 21 21 21 20 20 20 20 20 19 19 20 20 20 20 20 20 21 20 20 20
23 23 23 22 22 22 22 21 21 21 21 21 21 21 21 21 22 22 22 22 22 22 22 22 22 22 22 22 22 21 21 21 21 21 21 21 22 22 22 22 22 22 22
23 24 23 23 23 23 23 23 23 23 23 22 22 22 22 22 22 23 23 23 24 24 24 24 24 24 24 24 23 23 23 23 23 22 22 23 23 24 24 24 24 24 24
24 24 24 24 23 23 23 23 23 23 23 24 24 24 24 24 24 24 24 24 25 25 25 26 26 26 25 25 25 25 25 24 24 24 24 25 25 26 26 26 26 26 26
25 25 25 25 25 24 25 25 24 25 25 25 25 25 25 25 25 25 25 25 26 26 27 27 27 27 27 27 26 26 26 26 26 26 27 27 27 27 28 28 28 28 28
26 26 25 25 25 25 25 25 25 25 25 25 26 26 25 25 25 26 26 26 27 27 27 28 28 28 28 28 28 28 28 28 28 29 29 29 29 30 31 31 31 31 31
27 27 26 26 25 25 26 26 26 26 26 27 27 27 26 26 26 26 27 27 27 27 27 28 28 28 28 29 29 29 29 29 30 31 31 32 32 33 33 33 33 33 33
28 27 27 27 27 26 26 26 27 27 27 27 27 27 27 27 27 27 27 27 27 28 28 28 28 28 29 29 30 30 31 31 32 32 33 33 34 34 34 35 35 35 35
29 28 28 28 28 27 27 27 27 27 27 28 28 28 28 28 28 28 28 28 29 28 28 28 28 29 29 29 30 31 32 33 33 34 35 35 35 35 35 36 36 36 36
29 29 29 29 29 29 28 28 28 28 28 28 28 28 28 29 29 29 29 29 29 29 29 29 29 29 30 30 31 32 33 34 35 35 36 36 36 36 37 37 38 37 37
29 29 29 30 29 29 29 28 28 28 28 28 28 28 29 29 29 29 30 30 30 30 30 30 30 30 31 32 32 33 34 35 37 37 37 38 38 38 39 39 39 39 39
30 30 30 30 29 29 29 29 29 29 29 29 29 29 30 30 30 30 30 30 30 31 31 31 32 32 33 33 34 35 35 36 37 38 39 39 39 40 40 40 40 41 41
30 30 30 30 30 30 29 29 30 29 29 29 29 29 29 29 30 30 30 30 30 31 32 33 33 34 34 35 36 36 36 37 38 38 39 40 41 41 42 42 42 43 43
31 31 31 30 30 30 30 30 30 29 29 29 29 29 29 29 29 29 30 30 31 32 32 33 34 35 36 36 37 37 37 38 39 40 41 42 43 43 44 44 44 45 46
31 31 31 31 31 31 30 30 30 30 30 30 30 30 30 30 30 30 31 31 32 33 34 35 36 36 36 37 38 38 39 40 40 41 42 43 44 45 45 46 47 47 48
32 32 31 31 31 31 31 31 31 31 31 31 31 31 31 31 31 31 32 32 33 34 35 36 37 37 37 38 39 40 40 41 42 43 44 44 45 46 47 48 48 49 49
32 32 32 32 32 31 31 31 32 32 32 32 32 32 31 31 32 32 32 33 34 35 35 36 37 38 38 39 40 41 42 43 43 44 45 46 47 47 48 49 49 50 50
32 32 31 31 31 31 31 31 32 32 32 32 32 32 32 32 32 33 34 34 35 36 36 37 38 38 39 40 41 43 44 44 45 46 47 47 48 49 49 50 51 51 52
31 31 31 31 31 31 31 32 32 33 33 33 33 33 33 33 34 35 35 36 36 37 37 38 39 39 40 42 43 44 45 45 46 47 48 48 49 50 51 51 52 53 53
32 31 31 31 31 31 31 32 33 33 33 33 34 34 34 35 35 36 37 37 37 38 38 39 40 41 42 44 46 47 46 45 46 46 46 47 48 49 50 51 53 54 55
32 32 31 31 31 31 31 32 32 33 33 33 34 35 35 36 36 37 38 38 38 39 40 41 41 43 44 45 46 46 46 46 46 45 45 46 47 49 50 52 53 54 56
31 31 31 31 31 31 32 32 33 33 33 34 35 35 36 37 37 38 39 39 39 40 41 41 42 42 44 44 45 45 45 47 47 47 46 46 47 48 50 52 53 55 56
32 32 32 31 31 32 32 33 33 33 34 35 36 36 37 37 38 39 40 40 40 41 41 41 42 43 44 45 45 45 46 47 47 48 49 48 48 48 50 52 53 55 55
Wind_Direction
242 244 246 248 249 250 251 252 253 254 253 254 257 258 259 260 260 260 261 261 262 265 266 267 270 269 270 273 273 277 277 277 273 273 271 271 270 272 274 275 275 276 277
244 246 248 249 250 251 252 254 255 255 256 255 255 257 260 261 261 261 261 261 263 265 266 268 270 271 272 273 273 276 276 277 280 276 274 272 271 271 272 274 275 275 275
245 247 248 250 251 252 253 254 255 255 256 256 256 258 260 262 263 262 262 262 263 265 266 268 269 271 273 275 274 276 276 277 278 279 277 276 274 272 272 273 274 275 276
245 246 248 249 250 252 253 254 254 255 256 257 258 260 261 263 263 263 263 263 264 265 266 267 269 270 272 274 274 274 276 277 278 278 278 277 278 275 274 274 273 274 276
244 245 246 248 249 251 252 253 254 255 256 258 260 261 263 263 263 263 264 264 264 265 266 267 268 270 271 272 272 273 275 276 276 277 277 277 278 278 276 275 275 275 276
243 245 246 248 249 251 252 252 254 255 257 259 261 263 264 263 263 263 263 263 264 265 266 268 268 269 270 270 271 272 273 275 276 277 277 277 278 279 277 276 276 276 276
243 244 246 248 250 251 252 253 254 255 257 259 261 262 263 264 264 263 263 263 264 265 267 268 269 269 270 270 270 272 272 273 275 276 277 277 279 279 279 277 277 277 278
244 245 247 249 250 251 252 254 255 256 258 260 261 262 262 263 263 264 264 265 266 267 268 269 269 269 270 270 271 272 272 273 274 275 276 277 277 278 278 279 278 278 278
245 247 248 250 251 252 253 255 256 257 259 260 261 261 262 263 264 265 266 267 268 269 270 270 269 270 270 271 272 272 273 273 275 276 277 277 278 277 277 278 277 276 278
246 248 249 250 251 253 254 256 257 258 259 260 261 261 261 262 264 265 266 268 269 270 271 271 271 270 270 270 272 273 274 274 275 276 277 277 278 278 278 279 278 277 277
246 248 249 249 251 253 255 256 257 258 259 259 259 259 261 262 263 265 266 268 270 270 271 272 272 272 271 272 272 273 274 275 276 277 277 278 278 278 278 278 278 278 277
246 247 248 250 251 253 255 256 257 258 259 259 258 259 261 263 264 265 267 269 270 271 271 271 272 272 273 273 274 274 275 275 276 277 278 278 278 278 279 278 277 278 278
246 247 249 250 252 253 254 256 257 258 259 259 259 260 262 264 265 266 268 269 270 271 271 272 272 273 274 275 276 276 276 276 277 277 278 278 278 278 278 278 277 278 278
246 247 249 251 252 252 254 256 257 259 260 260 260 261 262 264 266 267 268 269 269 270 270 271 272 274 275 276 276 277 278 279 278 278 278 277 277 277 277 277 277 278 278
246 248 249 250 252 253 255 257 258 259 260 260 260 261 263 264 265 266 268 268 269 270 271 272 274 275 275 276 277 278 279 280 280 279 278 278 277 277 276 276 277 277 278
246 247 248 250 251 254 256 257 257 259 259 259 260 262 264 265 265 267 268 269 270 271 272 273 274 275 276 277 278 279 279 280 281 281 280 278 278 277 277 277 277 277 278
244 246 248 249 251 253 256 257 257 257 258 259 260 262 263 265 266 267 269 271 271 272 274 275 275 276 277 278 279 279 281 281 282 282 282 280 278 278 278 277 277 277 278
244 245 248 250 251 254 255 256 257 257 258 259 260 262 264 265 267 269 270 271 272 273 275 276 276 277 278 279 280 280 282 282 282 282 282 281 279 278 278 278 278 278 278
245 246 248 249 251 253 255 255 256 257 258 259 261 262 264 267 268 269 270 271 273 274 276 277 277 278 279 279 280 281 282 282 282 282 283 282 281 280 279 279 279 278 278
246 247 248 249 251 253 254 255 257 258 259 260 261 262 265 267 269 271 272 273 274 276 277 278 279 279 280 280 281 282 283 283 283 283 283 283 283 281 280 279 279 279 278
246 248 248 249 251 253 255 256 257 257 259 260 261 263 265 268 270 272 274 275 276 277 279 280 280 281 282 282 282 283 284 284 284 284 283 283 283 282 282 280 280 280 279
246 247 249 250 252 253 255 256 257 257 259 260 262 264 267 269 271 274 275 276 278 279 280 281 281 282 283 283 284 285 284 283 284 284 284 284 284 283 282 281 280 281 281
246 248 249 251 252 253 255 256 257 258 261 262 264 266 268 270 272 274 275 277 278 280 282 282 283 283 284 285 286 287 286 285 284 284 283 284 284 283 283 283 281 281 282
246 247 249 251 252 253 254 255 257 260 262 264 266 268 270 272 273 274 275 277 278 280 282 284 284 284 285 286 287 288 288 288 288 286 285 286 286 285 284 284 283 282 283
244 247 249 251 253 254 255 256 258 260 263 265 267 269 272 273 275 276 276 277 279 280 282 284 284 286 287 288 288 287 288 289 290 289 288 287 286 285 285 285 284 283 283
244 247 249 251 253 255 256 257 259 261 264 267 269 271 273 274 276 277 277 278 280 281 283 283 284 286 288 289 288 288 289 290 290 291 291 290 288 287 287 287 287 285 284
Height
5855 5856 5858 5858 5859 5860 5861 5862 5863 5864 5864 5865 5865 5866 5867 5867 5868 5868 5868 5868 5868 5869 5869 5869 5868 5868 5868 5868 5867 5867 5867 5866 5865 5865 5864 5864 5864 5863 5863 5862 5861 5861 5860
5853 5854 5855 5856 5857 5858 5858 5859 5860 5861 5862 5862 5863 5863 5864 5865 5865 5865 5865 5866 5866 5866 5866 5866 5866 5866 5865 5865 5865 5864 5864 5864 5863 5862 5862 5861 5861 5861 5860 5859 5859 5858 5857
5849 5850 5851 5852 5854 5854 5855 5856 5857 5858 5858 5859 5860 5861 5861 5862 5862 5863 5863 5863 5863 5863 5863 5863 5863 5863 5862 5862 5862 5861 5861 5861 5860 5859 5859 5858 5858 5857 5857 5856 5856 5855 5854
5845 5846 5847 5849 5850 5851 5852 5853 5854 5855 5855 5856 5857 5857 5858 5859 5859 5859 5860 5860 5860 5860 5860 5860 5859 5859 5859 5859 5859 5858 5858 5857 5857 5856 5855 5855 5855 5854 5853 5853 5852 5852 5851
5841 5842 5844 5845 5846 5847 5848 5849 5850 5851 5852 5853 5853 5854 5855 5855 5855 5856 5856 5856 5856 5856 5856 5856 5856 5856 5855 5855 5855 5855 5854 5854 5853 5852 5852 5851 5851 5850 5850 5849 5848 5848 5847
5836 5838 5839 5841 5842 5843 5844 5845 5846 5847 5848 5849 5850 5850 5851 5851 5852 5852 5852 5852 5852 5852 5852 5852 5852 5851 5851 5851 5851 5850 5850 5850 5849 5848 5848 5847 5847 5846 5846 5845 5844 5844 5843
5832 5833 5835 5836 5838 5839 5840 5841 5842 5843 5844 5845 5846 5846 5846 5847 5847 5847 5848 5848 5848 5848 5848 5847 5847 5847 5847 5847 5846 5846 5845 5845 5845 5844 5844 5843 5843 5842 5841 5840 5840 5839 5839
5827 5829 5830 5832 5833 5834 5836 5837 5838 5839 5840 5840 5841 5841 5842 5842 5842 5843 5843 5843 5843 5843 5843 5842 5842 5842 5842 5842 5842 5841 5841 5840 5840 5840 5839 5839 5838 5837 5836 5835 5835 5834 5833
5822 5824 5826 5827 5829 5830 5831 5832 5833 5834 5835 5835 5836 5836 5837 5837 5837 5838 5838 5838 5838 5838 5837 5837 5837 5837 5837 5836 5836 5836 5836 5835 5835 5834 5834 5833 5832 5831 5831 5830 5829 5828 5827
5817 5819 5821 5822 5824 5825 5826 5827 5828 5829 5830 5830 5831 5831 5832 5832 5832 5832 5832 5832 5832 5832 5832 5832 5831 5831 5831 5831 5830 5830 5830 5830 5829 5828 5828 5827 5826 5825 5824 5823 5823 5822 5821
5812 5814 5816 5817 5819 5820 5821 5822 5823 5823 5824 5825 5825 5826 5826 5827 5827 5827 5827 5827 5827 5827 5827 5826 5826 5825 5825 5825 5825 5824 5824 5823 5823 5822 5821 5820 5820 5819 5818 5817 5816 5815 5814
5806 5808 5810 5812 5813 5814 5815 5816 5817 5818 5818 5819 5819 5820 5820 5821 5821 5822 5822 5822 5821 5821 5821 5821 5820 5820 5819 5819 5818 5818 5817 5817 5816 5815 5814 5813 5813 5812 5811 5809 5808 5807 5807
5801 5803 5804 5806 5807 5809 5810 5811 5811 5812 5813 5813 5814 5814 5815 5815 5815 5816 5816 5816 5815 5815 5815 5815 5814 5814 5813 5812 5812 5811 5810 5810 5809 5808 5807 5806 5805 5804 5803 5802 5801 5800 5799
5794 5796 5798 5799 5801 5802 5803 5805 5805 5806 5807 5807 5808 5808 5809 5809 5809 5809 5810 5809 5809 5809 5809 5808 5808 5807 5807 5806 5805 5804 5803 5802 5801 5800 5799 5798 5797 5796 5795 5794 5792 5791 5790
5788 5790 5792 5793 5795 5796 5797 5798 5799 5800 5801 5801 5802 5802 5803 5803 5803 5803 5803 5803 5803 5803 5802 5802 5801 5801 5800 5799 5798 5797 5796 5795 5793 5792 5791 5790 5788 5787 5786 5785 5784 5783 5782
5781 5783 5785 5787 5788 5789 5791 5792 5793 5794 5794 5795 5795 5796 5796 5796 5796 5797 5797 5796 5796 5796 5795 5795 5794 5793 5792 5791 5790 5789 5788 5786 5785 5783 5782 5780 5779 5778 5777 5776 5775 5773 5772
5774 5776 5778 5780 5781 5783 5784 5785 5786 5787 5788 5788 5789 5789 5790 5790 5790 5790 5790 5790 5789 5788 5788 5787 5786 5785 5785 5783 5782 5781 5779 5778 5776 5774 5773 5771 5770 5768 5767 5766 5764 5763 5761
5767 5769 5771 5773 5774 5776 5777 5778 5779 5780 5781 5782 5782 5783 5783 5783 5783 5783 5783 5782 5782 5781 5780 5779 5778 5777 5776 5775 5774 5772 5770 5769 5767 5765 5763 5761 5759 5758 5756 5755 5753 5752 5750
5760 5762 5764 5765 5767 5769 5770 5771 5772 5773 5774 5775 5775 5776 5776 5776 5776 5776 5775 5775 5774 5773 5772 5771 5770 5769 5768 5766 5765 5763 5761 5759 5757 5755 5753 5751 5749 5747 5745 5743 5741 5739 5738
5752 5754 5756 5758 5760 5761 5763 5764 5765 5766 5767 5768 5768 5768 5769 5769 5768 5768 5768 5767 5766 5765 5764 5762 5761 5760 5758 5757 5755 5753 5751 5749 5747 5744 5742 5740 5737 5735 5732 5731 5729 5727 5725
5745 5747 5749 5751 5752 5754 5755 5757 5758 5759 5759 5760 5760 5761 5761 5761 5760 5760 5759 5759 5757 5756 5755 5753 5752 5750 5749 5747 5745 5743 5741 5738 5736 5733 5731 5728 5725 5723 5720 5718 5715 5713 5711
5738 5740 5742 5743 5745 5747 5748 5749 5750 5751 5751 5752 5753 5753 5753 5752 5752 5751 5751 5750 5748 5747 5745 5744 5742 5740 5738 5736 5734 5732 5730 5729 5725 5722 5719 5716 5713 5710 5707 5704 5702 5699 5697
5731 5733 5734 5736 5738 5739 5740 5741 5742 5743 5744 5744 5745 5745 5744 5744 5743 5742 5741 5740 5739 5737 5736 5734 5731 5729 5727 5725 5722 5719 5716 5714 5713 5711 5707 5704 5700 5697 5694 5691 5688 5685 5682
5723 5725 5727 5728 5730 5731 5732 5733 5734 5735 5736 5736 5736 5736 5735 5735 5734 5733 5732 5730 5729 5727 5726 5723 5721 5718 5716 5713 5710 5706 5703 5700 5697 5697 5696 5692 5688 5685 5681 5678 5674 5671 5667
5715 5717 5719 5721 5722 5723 5724 5725 5726 5727 5728 5728 5727 5727 5726 5725 5724 5723 5721 5720 5719 5717 5715 5713 5710 5708 5705 5702 5698 5695 5692 5688 5684 5682 5682 5680 5677 5673 5669 5664 5660 5657 5653
5707 5709 5711 5713 5714 5715 5716 5717 5718 5719 5719 5719 5718 5718 5717 5715 5714 5712 5711 5709 5708 5706 5704 5702 5700 5697 5694 5691 5687 5684 5680 5677 5673 5669 5667 5666 5664 5661 5657 5652 5647 5643 5638